North Andover, MA

11:03 AM EST on February 20, 2017 (GMT -0500)
Lawrence Municipal

Weather History for KLWM - September, 2012

Change the Weather History Date:

Wednesday, September 26, 2012

  Actual Average Record
Temperature  
Mean Temperature 66 °F -  
Max Temperature 73 °F 67 °F 91 °F (2007)
Min Temperature 60 °F 46 °F 34 °F (1936)
Cooling Degree Days 2    
Growing Degree Days 16 (Base 50)    
Moisture  
Dew Point 57 °F    
Average Humidity 72    
Maximum Humidity 83    
Minimum Humidity 61    
Precipitation  
Precipitation 0.00 in - - ()
Sea Level Pressure  
Sea Level Pressure 30.07 in    
Wind  
Wind Speed 7 mph (SSW)    
Max Wind Speed 13 mph    
Max Gust Speed 22 mph    
Visibility 10 miles    
Events      
Averages and records for this station are not official NWS values.
T = Trace of Precipitation, MM = Missing Value Source: NWS Daily Summary

Daily Weather History Graph

Daily Weather History Graph

Search for Another Location

Airport or City:

Trip Planner

Search our weather history database for the weather conditions in past years. The results will help you decide how hot, cold, wet, or windy it might be!

Date:

Astronomy

Sep. 26, 2012 Rise Set
Actual Time 6:36 AM EDT 6:33 PM EDT
Civil Twilight 6:08 AM EDT 7:01 PM EDT
Nautical Twilight 5:35 AM EDT 7:34 PM EDT
Astronomical Twilight 5:02 AM EDT 8:08 PM EDT
Moon 4:35 PM EDT (9/26) 2:55 AM EDT (9/26)
Length of Visible Light 12h 53m
Length of Day
11h 57m
Waxing Gibbous, 88% of the Moon is Illuminated
Sep 26
Waxing Gibbous
Sep 29
Full
Oct 8
Last Quarter
Oct 15
New
Oct 21
First Quarter

Hourly Weather History & Observations

Time (EDT) Temp. Dew Point Humidity Pressure Visibility Wind Dir Wind Speed Gust Speed Precip Events Conditions
12:54 AM 62.6 °F 50.0 °F 63% 30.14 in 10.0 mi SSW 4.6 mph - N/A   Clear
1:54 AM 61.0 °F 51.1 °F 70% 30.14 in 10.0 mi SSW 4.6 mph - N/A   Clear
2:54 AM 60.1 °F 52.0 °F 75% 30.13 in 10.0 mi SSW 5.8 mph - N/A   Partly Cloudy
3:54 AM 60.1 °F 53.1 °F 78% 30.12 in 10.0 mi SSW 6.9 mph - N/A   Clear
4:54 AM 61.0 °F 54.0 °F 78% 30.12 in 10.0 mi SSW 6.9 mph - N/A   Scattered Clouds
5:54 AM 61.0 °F 55.0 °F 81% 30.12 in 10.0 mi SSW 4.6 mph - N/A   Mostly Cloudy
6:54 AM 61.0 °F 55.9 °F 83% 30.12 in 10.0 mi Variable 5.8 mph - 0.00 in   Overcast
7:54 AM 62.6 °F 55.4 °F 77% 30.11 in 10.0 mi Variable 5.8 mph - N/A   Overcast
8:54 AM 64.0 °F 57.0 °F 78% 30.10 in 10.0 mi South 6.9 mph - N/A   Overcast
9:54 AM 66.0 °F 57.9 °F 75% 30.09 in 10.0 mi South 8.1 mph - N/A   Overcast
10:54 AM 70.0 °F 57.9 °F 65% 30.08 in 10.0 mi SSW 11.5 mph 18.4 mph N/A   Overcast
11:54 AM 71.1 °F 59.0 °F 66% 30.06 in 10.0 mi SW 12.7 mph 19.6 mph N/A   Overcast
12:54 PM 72.0 °F 59.0 °F 64% 30.05 in 10.0 mi SSW 12.7 mph 19.6 mph N/A   Overcast
1:54 PM 73.0 °F 59.0 °F 61% 30.03 in 10.0 mi SW 9.2 mph 21.9 mph N/A   Overcast
2:54 PM 73.0 °F 60.1 °F 64% 30.01 in 10.0 mi SSW 10.4 mph - N/A   Overcast
3:54 PM 72.0 °F 60.1 °F 66% 30.01 in 10.0 mi SSW 8.1 mph 18.4 mph N/A   Overcast
4:54 PM 71.1 °F 59.0 °F 66% 30.00 in 10.0 mi SSW 10.4 mph - N/A   Overcast
5:54 PM 70.0 °F 59.0 °F 68% 30.02 in 10.0 mi SW 10.4 mph 18.4 mph N/A   Overcast
6:54 PM 70.0 °F 60.1 °F 71% 30.02 in 10.0 mi SW 9.2 mph - N/A   Overcast
7:54 PM 69.1 °F 60.1 °F 73% 30.03 in 10.0 mi SW 6.9 mph - N/A   Mostly Cloudy
8:54 PM 69.1 °F 60.1 °F 73% 30.03 in 10.0 mi SW 6.9 mph - N/A   Overcast
9:54 PM 69.1 °F 60.1 °F 73% 30.03 in 10.0 mi WSW 4.6 mph - N/A   Overcast
10:54 PM 66.9 °F 61.0 °F 81% 30.03 in 10.0 mi SW 6.9 mph - 0.00 in   Overcast
11:54 PM 66.2 °F 60.8 °F 83% 30.01 in 10.0 mi SSW 4.6 mph - N/A   Overcast